ARIANE 2 DEB, 33560

Orbit data source: Space-Track

ARIANE 2 DEB, 33560 is space debris in HEO originally from a launch on Fri, 27 Jan 1989 UTC launched from the French Guiana (FRGUI). Debris objects in space refer to the collection of defunct objects orbiting the Earth. Examples of debris include non-operational satellites, rocket bodies, and fragments generated from explosions, collisions, or faulty payload assembly.

Loading next visibility...
Identifier
33560, 1989-006BC
Orbit
HEO
Country
Flag of FRFR
Related business
Manufacturer
EADS/LV
Mission
Spacecraft
Bus & Motor
Unknown
Mass
Unknown
Launch date (UTC)
1989-01-27 (37 years ago)
Launch vehicle
Unknown
Launch site
French Guiana (FRGUI)
Object type
Payload
Rocket body
Debris
Shape & HBR
Unknown shape, 0.2 m
Radar Cross Section
Medium (>0.1 m² and <1 m²)

Expand to show TLE details & history
Last TLE update: 2 days ago

TLE from 2 days ago
0 ARIANE 2 DEB
1 33560U 89006BC  26171.08629734  .00000305  00000-0  18583-1 0  9990
2 33560  10.9288  23.8397 7070945 135.7041   6.1008  2.25215171180923
Epoch: 2026-06-20T02:04Z
TLE epoch observation values (Epoch: 2026-06-20T02:04:16.090Z)
Latitude
-0.42421°
Longitude
-93.40212°
Altitude
1,908.715 km
Speed
8.943 km/s
True Right ascension
13h 43m 53s
True Declination
0° 25' 19"
Sunlit
Object was in daylight at epoch
Visualization orbit readout
Latitude
Unknown
Longitude
Unknown
Altitude
Unknown
Speed
Unknown
Apparent Right ascension
Unknown
Apparent Declination
Unknown
Sunlit
N/A
Visualization observer readout
Local Sidereal Time
23:20:12
Azimuth
Unknown
Elevation
Unknown
Doppler factor
Unknown
Orbital elements
Apogee altitude
35,598.978 km
Perigee altitude
824.351 km
Semi-major axis
24,589.802 km
Eccentricity
0.70709
Inclination
10.9288°
RAAN
23.8397°
Arg. of periapsis
135.7041°
True anomaly
45.84807°
Mean anomaly
6.1008°
Eccentric anomaly
19.87248°
Mean motion
0.56287 °/min
Orbital period
639.58 mins
BSTAR
0.018583
Loading maneuver chart data...
Computing Atmospheric mass density...
Loading historical data...
Loading historical data...
Loading historical data...
Loading historical data...
Loading historical data...
Loading historical data...
Loading historical data...

Documentation

Showing up to 5 results
|